Rutland, VT

12:33 AM EDT on July 26, 2017 (GMT -0400)
Rutland State

Weather History for KRUT - October, 2012

Change the Weather History Date:

Saturday, October 13, 2012

  Actual Average Record
Temperature  
Mean Temperature 37 °F -  
Max Temperature 48 °F - 80 °F (1954)
Min Temperature 25 °F - 24 °F (1951)
Degree Days  
Heating Degree Days 28    
Month to date heating degree days 177  
Since 1 July heating degree days 408  
Cooling Degree Days 0    
Month to date cooling degree days 0  
Year to date cooling degree days 411  
Moisture  
Dew Point 23 °F    
Average Humidity 65    
Maximum Humidity 92    
Minimum Humidity 37    
Precipitation  
Precipitation 0.02 in - 0.88 in (1990)
Month to date precipitation 1.02  
Year to date precipitation 19.25  
Sea Level Pressure  
Sea Level Pressure 30.37 in    
Wind  
Wind Speed 6 mph (SSE)    
Max Wind Speed 10 mph    
Max Gust Speed -    
Visibility 10 miles    
Events      
T = Trace of Precipitation, MM = Missing Value Source: NWS Daily Summary

Daily Weather History Graph

Daily Weather History Graph

Search for Another Location

Airport or City:

Trip Planner

Search our weather history database for the weather conditions in past years. The results will help you decide how hot, cold, wet, or windy it might be!

Date:

Astronomy

Oct. 13, 2012 Rise Set
Actual Time 7:04 AM EDT 6:11 PM EDT
Civil Twilight 6:35 AM EDT 6:39 PM EDT
Nautical Twilight 6:02 AM EDT 7:12 PM EDT
Astronomical Twilight 5:28 AM EDT 7:46 PM EDT
Moon 4:47 AM EDT (10/13) 4:55 PM EDT (10/13)
Length of Visible Light 12h 04m
Length of Day
11h 07m
Waning Crescent, 5% of the Moon is Illuminated
Oct 13
Waning Crescent
Oct 15
New
Oct 21
First Quarter
Oct 29
Full
Nov 6
Last Quarter

Hourly Weather History & Observations

Time (EDT) Temp. Windchill Dew Point Humidity Pressure Visibility Wind Dir Wind Speed Gust Speed Precip Events Conditions
12:15 AM 28.4 °F - 24.8 °F 86% 30.38 in 10.0 mi Calm Calm - N/A   Clear
12:35 AM 26.6 °F - 24.8 °F 93% 30.38 in 10.0 mi Calm Calm - N/A   Clear
1:15 AM 26.6 °F - 24.8 °F 93% 30.39 in 10.0 mi Calm Calm - N/A   Clear
1:55 AM 26.6 °F - 24.8 °F 93% 30.39 in 10.0 mi Calm Calm - N/A   Clear
2:15 AM 26.6 °F 22.6 °F 24.8 °F 93% 30.39 in 10.0 mi ESE 3.5 mph - N/A   Clear
3:15 AM 26.6 °F 21.2 °F 24.8 °F 93% 30.38 in 10.0 mi SE 4.6 mph - N/A   Clear
3:35 AM 26.6 °F 20.0 °F 23.0 °F 86% 30.38 in 10.0 mi SE 5.8 mph - N/A   Clear
3:55 AM 26.6 °F 20.0 °F 23.0 °F 86% 30.38 in 10.0 mi SE 5.8 mph - N/A   Clear
4:35 AM 26.6 °F 20.0 °F 24.8 °F 93% 30.39 in 10.0 mi SE 5.8 mph - N/A   Clear
4:55 AM 26.6 °F 20.0 °F 21.2 °F 80% 30.40 in 10.0 mi SE 5.8 mph - N/A   Clear
5:15 AM 26.6 °F 21.2 °F 21.2 °F 80% 30.41 in 10.0 mi SE 4.6 mph - N/A   Clear
5:35 AM 24.8 °F 19.1 °F 21.2 °F 86% 30.41 in 10.0 mi SSE 4.6 mph - N/A   Clear
5:55 AM 26.6 °F 22.6 °F 23.0 °F 86% 30.41 in 10.0 mi SE 3.5 mph - N/A   Clear
6:15 AM 24.8 °F 17.9 °F 21.2 °F 86% 30.42 in 10.0 mi SE 5.8 mph - N/A   Clear
6:35 AM 24.8 °F 16.1 °F 21.2 °F 86% 30.42 in 10.0 mi ESE 8.1 mph - N/A   Clear
6:55 AM 24.8 °F 16.1 °F 21.2 °F 86% 30.42 in 10.0 mi SE 8.1 mph - N/A   Clear
7:15 AM 24.8 °F 15.3 °F 21.2 °F 86% 30.43 in 10.0 mi SE 9.2 mph - N/A   Clear
7:55 AM 26.6 °F 19.1 °F 23.0 °F 86% 30.43 in 10.0 mi SE 6.9 mph - N/A   Clear
8:15 AM 26.6 °F 20.0 °F 23.0 °F 86% 30.43 in 10.0 mi SE 5.8 mph - N/A   Clear
8:35 AM 28.4 °F 23.3 °F 24.8 °F 86% 30.44 in 10.0 mi SE 4.6 mph - N/A   Clear
8:55 AM 30.2 °F 26.7 °F 24.8 °F 80% 30.44 in 10.0 mi SE 3.5 mph - N/A   Clear
9:15 AM 33.8 °F - 26.6 °F 75% 30.44 in 10.0 mi Calm Calm - N/A   Clear
9:55 AM 37.4 °F - 26.6 °F 65% 30.44 in 10.0 mi Calm Calm - N/A   Clear
10:35 AM 39.2 °F 37.0 °F 26.6 °F 61% 30.43 in 10.0 mi West 3.5 mph - N/A   Clear
10:55 AM 41.0 °F 36.4 °F 23.0 °F 49% 30.43 in 10.0 mi West 6.9 mph - N/A   Clear
11:15 AM 42.8 °F 39.3 °F 23.0 °F 46% 30.42 in 10.0 mi NW 5.8 mph - N/A   Clear
11:35 AM 42.8 °F 41.1 °F 21.2 °F 42% 30.42 in 10.0 mi NW 3.5 mph - N/A   Clear
11:55 AM 42.8 °F 37.0 °F 21.2 °F 42% 30.41 in 10.0 mi North 10.4 mph - N/A   Clear
12:15 PM 44.6 °F 39.7 °F 21.2 °F 39% 30.41 in 10.0 mi West 9.2 mph - N/A   Clear
12:35 PM 44.6 °F 40.7 °F 21.2 °F 39% 30.40 in 10.0 mi NNW 6.9 mph - N/A   Clear
12:55 PM 44.6 °F 39.7 °F 21.2 °F 39% 30.39 in 10.0 mi West 9.2 mph - N/A   Clear
1:55 PM 44.6 °F 40.7 °F 21.2 °F 39% 30.36 in 10.0 mi West 6.9 mph - N/A   Scattered Clouds
2:15 PM 46.4 °F 42.4 °F 21.2 °F 37% 30.35 in 10.0 mi WSW 8.1 mph - N/A   Clear
2:55 PM 46.4 °F 42.9 °F 21.2 °F 37% 30.35 in 10.0 mi West 6.9 mph - N/A   Clear
3:15 PM 46.4 °F 43.5 °F 19.4 °F 34% 30.33 in 10.0 mi SSW 5.8 mph - N/A   Clear
3:35 PM 46.4 °F 42.9 °F 21.2 °F 37% 30.33 in 10.0 mi WSW 6.9 mph - N/A   Clear
3:55 PM 46.4 °F 42.4 °F 21.2 °F 37% 30.32 in 10.0 mi WSW 8.1 mph - N/A   Mostly Cloudy
4:35 PM 46.4 °F 41.1 °F 21.2 °F 37% 30.32 in 10.0 mi West 11.5 mph - N/A   Clear
5:15 PM 46.4 °F 43.5 °F 21.2 °F 37% 30.33 in 10.0 mi SSW 5.8 mph - N/A   Clear
5:35 PM 46.4 °F 42.9 °F 23.0 °F 40% 30.33 in 10.0 mi SSW 6.9 mph - N/A   Scattered Clouds
5:55 PM 44.6 °F 42.2 °F 23.0 °F 43% 30.32 in 10.0 mi South 4.6 mph - N/A   Mostly Cloudy
6:15 PM 44.6 °F 42.2 °F 26.6 °F 49% 30.31 in 10.0 mi SSE 4.6 mph - N/A   Mostly Cloudy
6:35 PM 42.8 °F 39.3 °F 26.6 °F 53% 30.31 in 10.0 mi SE 5.8 mph - N/A   Scattered Clouds
6:55 PM 41.0 °F 39.0 °F 26.6 °F 57% 30.31 in 10.0 mi SSE 3.5 mph - N/A   Partly Cloudy
7:35 PM 42.8 °F 40.1 °F 26.6 °F 53% 30.30 in 10.0 mi SSE 4.6 mph - N/A   Overcast
8:35 PM 42.8 °F 38.0 °F 24.8 °F 49% 30.26 in 10.0 mi SE 8.1 mph - N/A   Overcast
8:55 PM 42.8 °F 38.0 °F 24.8 °F 49% 30.26 in 10.0 mi SE 8.1 mph - N/A   Overcast
9:35 PM 44.6 °F 40.2 °F 24.8 °F 46% 30.26 in 10.0 mi SE 8.1 mph - N/A   Overcast
10:15 PM 42.8 °F 37.5 °F 26.6 °F 53% 30.24 in 10.0 mi SE 9.2 mph - N/A   Overcast
10:55 PM 44.6 °F 39.7 °F 24.8 °F 46% 30.23 in 10.0 mi SE 9.2 mph - N/A   Overcast
11:15 PM 44.6 °F - 24.8 °F 46% 30.23 in 10.0 mi Calm Calm - N/A   Overcast